When you browse on this site, cookies collect data to enhance your experience and personalize the content and advertising you see.
Visit our Privacy Policy to learn more. By continuing to use the site, you agree to this use of cookies and data.
  • în România
  • Lista ţărilor
  • Pe 7 zile
  • Temperatura apei
  • Hartă satelitară
  • Meteo pe hartă
  • Widget-uri
  • user-avatar
    Intrare

    Meteo pe oră la Thessaloniki

    Astăzi, 20 Mai, Luni

    Timp Temperatura Precipitaţii Vânt Presiune Umiditate
    00:00 +18°C° 0 mm 2 m/s 752 mmHg 79%
    01:00 +18°C° 0 mm 2 m/s 752 mmHg 80%
    02:00 +17°C° 0 mm 2 m/s 752 mmHg 81%
    03:00 +17°C° 0 mm 2 m/s 752 mmHg 82%
    04:00 +18°C° 0 mm 1 m/s 752 mmHg 83%
    05:00 +16°C° 0 mm 1 m/s 752 mmHg 84%
    06:00 +19°C° 0 mm 1 m/s 752 mmHg 79%
    07:00 +20°C° 0 mm 1 m/s 752 mmHg 74%
    08:00 +21°C° 0 mm 1 m/s 752 mmHg 70%
    09:00 +23°C° 0 mm 2 m/s 753 mmHg 64%
    10:00 +24°C° 0 mm 2 m/s 753 mmHg 59%
    11:00 +26°C° 0 mm 2 m/s 753 mmHg 53%
    12:00 +26°C° 0 mm 3 m/s 753 mmHg 49%
    13:00 +27°C° 0 mm 4 m/s 753 mmHg 44%
    14:00 +28°C° 0 mm 5 m/s 753 mmHg 40%
    15:00 +28°C° 0 mm 5 m/s 753 mmHg 40%
    16:00 +28°C° 0 mm 5 m/s 753 mmHg 40%
    17:00 +28°C° 0 mm 5 m/s 753 mmHg 40%
    18:00 +26°C° 0 mm 4 m/s 753 mmHg 44%
    19:00 +25°C° 0 mm 3 m/s 753 mmHg 47%
    20:00 +23°C° 0 mm 2 m/s 753 mmHg 51%
    21:00 +21°C° 0 mm 2 m/s 754 mmHg 54%
    22:00 +21°C° 0 mm 1 m/s 754 mmHg 57%
    23:00 +20°C° 0 mm 1 m/s 755 mmHg 60%

    Mâine, 21 Mai, Marţi

    Timp Temperatura Precipitaţii Vânt Presiune Umiditate
    00:00 +20°C° 0 mm 1 m/s 755 mmHg 61%
    01:00 +19°C° 0 mm 1 m/s 755 mmHg 63%
    02:00 +18°C° 0 mm 1 m/s 755 mmHg 65%
    03:00 +18°C° 0 mm 1 m/s 755 mmHg 66%
    04:00 +16°C° 0 mm 1 m/s 755 mmHg 67%
    05:00 +16°C° 0 mm 2 m/s 755 mmHg 68%
    06:00 +17°C° 0 mm 2 m/s 755 mmHg 64%
    07:00 +18°C° 0 mm 2 m/s 755 mmHg 60%
    08:00 +20°C° 0 mm 2 m/s 755 mmHg 56%
    09:00 +21°C° 0 mm 2 m/s 755 mmHg 49%
    10:00 +24°C° 0 mm 2 m/s 756 mmHg 43%
    11:00 +25°C° 0 mm 2 m/s 756 mmHg 36%
    12:00 +26°C° 0 mm 2 m/s 755 mmHg 34%
    13:00 +27°C° 0 mm 2 m/s 755 mmHg 32%
    14:00 +27°C° 0 mm 3 m/s 755 mmHg 31%
    15:00 +27°C° 0 mm 3 m/s 755 mmHg 32%
    16:00 +27°C° 0 mm 3 m/s 755 mmHg 33%
    17:00 +27°C° 0 mm 3 m/s 755 mmHg 35%
    18:00 +25°C° 0 mm 3 m/s 755 mmHg 40%
    19:00 +24°C° 0 mm 3 m/s 755 mmHg 45%
    20:00 +21°C° 0 mm 2 m/s 756 mmHg 50%
    21:00 +20°C° 0 mm 2 m/s 756 mmHg 54%
    22:00 +20°C° 0 mm 1 m/s 757 mmHg 57%
    23:00 +20°C° 0 mm 1 m/s 758 mmHg 60%

    Poimâine, 22 Mai, Miercuri

    Timp Temperatura Precipitaţii Vânt Presiune Umiditate
    00:00 +19°C° 0 mm 1 m/s 758 mmHg 61%
    01:00 +19°C° 0 mm 1 m/s 758 mmHg 62%
    02:00 +18°C° 0 mm 1 m/s 758 mmHg 62%
    03:00 +17°C° 0 mm 2 m/s 758 mmHg 61%
    04:00 +16°C° 0 mm 2 m/s 758 mmHg 61%
    05:00 +16°C° 0 mm 2 m/s 758 mmHg 60%
    06:00 +17°C° 0 mm 2 m/s 758 mmHg 56%
    07:00 +19°C° 0 mm 2 m/s 758 mmHg 53%
    08:00 +20°C° 0 mm 3 m/s 758 mmHg 50%
    09:00 +23°C° 0 mm 2 m/s 758 mmHg 46%
    10:00 +24°C° 0 mm 2 m/s 758 mmHg 42%
    11:00 +26°C° 0 mm 1 m/s 758 mmHg 38%
    12:00 +26°C° 0 mm 2 m/s 758 mmHg 36%
    13:00 +27°C° 0 mm 2 m/s 758 mmHg 34%
    14:00 +28°C° 0 mm 3 m/s 757 mmHg 33%
    15:00 +27°C° 0 mm 3 m/s 757 mmHg 34%
    16:00 +27°C° 0 mm 3 m/s 757 mmHg 36%
    17:00 +26°C° 0 mm 3 m/s 756 mmHg 37%
    18:00 +25°C° 0 mm 3 m/s 756 mmHg 41%
    19:00 +23°C° 0 mm 2 m/s 756 mmHg 44%
    20:00 +22°C° 0 mm 1 m/s 757 mmHg 47%
    21:00 +21°C° 0 mm 1 m/s 757 mmHg 48%
    22:00 +21°C° 0 mm 1 m/s 757 mmHg 49%
    23:00 +20°C° 0 mm 1 m/s 757 mmHg 50%

    23 Mai, Joi

    Timp Temperatura Precipitaţii Vânt Presiune Umiditate
    00:00 +20°C° 0 mm 1 m/s 757 mmHg 50%
    01:00 +20°C° 0 mm 1 m/s 757 mmHg 51%
    02:00 +19°C° 0 mm 1 m/s 757 mmHg 51%
    03:00 +19°C° 0 mm 1 m/s 757 mmHg 52%
    04:00 +18°C° 0 mm 1 m/s 757 mmHg 53%
    05:00 +18°C° 0 mm 1 m/s 756 mmHg 54%
    06:00 +19°C° 0 mm 1 m/s 756 mmHg 52%
    07:00 +20°C° 0 mm 2 m/s 756 mmHg 51%
    08:00 +21°C° 0 mm 2 m/s 757 mmHg 49%
    09:00 +24°C° 0 mm 2 m/s 756 mmHg 46%
    10:00 +25°C° 0 mm 2 m/s 756 mmHg 44%
    11:00 +27°C° 0 mm 2 m/s 756 mmHg 41%
    12:00 +28°C° 0 mm 2 m/s 756 mmHg 39%
    13:00 +29°C° 0 mm 2 m/s 755 mmHg 36%
    14:00 +29°C° 0 mm 2 m/s 755 mmHg 34%
    15:00 +29°C° 0 mm 2 m/s 754 mmHg 35%
    16:00 +29°C° 0 mm 3 m/s 754 mmHg 36%
    17:00 +28°C° 0 mm 4 m/s 754 mmHg 37%
    18:00 +26°C° 0 mm 3 m/s 754 mmHg 44%
    19:00 +24°C° 0 mm 3 m/s 754 mmHg 50%
    20:00 +21°C° 0 mm 2 m/s 754 mmHg 56%
    21:00 +20°C° 0.1 mm 2 m/s 754 mmHg 60%
    22:00 +21°C° 0.1 mm 1 m/s 754 mmHg 64%
    23:00 +20°C° 0.1 mm 1 m/s 754 mmHg 67%

    24 Mai, Vineri

    Timp Temperatura Precipitaţii Vânt Presiune Umiditate
    00:00 +20°C° 0.6 mm 1 m/s 754 mmHg 70%
    01:00 +19°C° 0.6 mm 1 m/s 754 mmHg 72%
    02:00 +19°C° 0.6 mm 1 m/s 754 mmHg 75%
    03:00 +18°C° 0.1 mm 2 m/s 754 mmHg 77%
    04:00 +17°C° 0.1 mm 2 m/s 754 mmHg 78%
    05:00 +17°C° 0.1 mm 3 m/s 753 mmHg 80%
    06:00 +18°C° 0 mm 3 m/s 753 mmHg 74%
    07:00 +19°C° 0 mm 4 m/s 753 mmHg 69%
    08:00 +20°C° 0 mm 4 m/s 754 mmHg 64%
    09:00 +22°C° 0 mm 4 m/s 753 mmHg 57%
    10:00 +23°C° 0 mm 4 m/s 753 mmHg 50%
    11:00 +26°C° 0 mm 4 m/s 753 mmHg 43%
    12:00 +26°C° 0.1 mm 4 m/s 752 mmHg 40%
    13:00 +27°C° 0.1 mm 4 m/s 752 mmHg 37%
    14:00 +28°C° 0.1 mm 4 m/s 751 mmHg 35%
    15:00 +28°C° 0 mm 4 m/s 751 mmHg 35%
    16:00 +28°C° 0 mm 3 m/s 751 mmHg 36%
    17:00 +28°C° 0 mm 3 m/s 751 mmHg 36%
    18:00 +26°C° 0 mm 3 m/s 751 mmHg 41%
    19:00 +24°C° 0 mm 2 m/s 751 mmHg 46%
    20:00 +23°C° 0 mm 2 m/s 751 mmHg 52%
    21:00 +21°C° 0 mm 2 m/s 751 mmHg 54%
    22:00 +21°C° 0 mm 1 m/s 752 mmHg 56%
    23:00 +20°C° 0 mm 1 m/s 752 mmHg 58%

    25 Mai, Sâmbătă

    Timp Temperatura Precipitaţii Vânt Presiune Umiditate
    00:00 +19°C° 0 mm 1 m/s 752 mmHg 59%
    01:00 +18°C° 0 mm 2 m/s 752 mmHg 60%
    02:00 +17°C° 0 mm 2 m/s 752 mmHg 61%
    03:00 +17°C° 0 mm 2 m/s 752 mmHg 61%
    04:00 +16°C° 0 mm 2 m/s 752 mmHg 62%
    05:00 +16°C° 0 mm 2 m/s 752 mmHg 62%
    06:00 +17°C° 0 mm 2 m/s 752 mmHg 58%
    07:00 +19°C° 0 mm 2 m/s 752 mmHg 53%
    08:00 +20°C° 0 mm 2 m/s 752 mmHg 48%
    09:00 +23°C° 0 mm 2 m/s 752 mmHg 45%
    10:00 +25°C° 0 mm 1 m/s 752 mmHg 42%
    11:00 +26°C° 0 mm 1 m/s 752 mmHg 38%
    12:00 +27°C° 0 mm 2 m/s 752 mmHg 37%
    13:00 +28°C° 0 mm 3 m/s 752 mmHg 36%
    14:00 +28°C° 0 mm 3 m/s 752 mmHg 34%
    15:00 +28°C° 0 mm 3 m/s 751 mmHg 36%
    16:00 +28°C° 0 mm 4 m/s 751 mmHg 37%
    17:00 +28°C° 0 mm 4 m/s 751 mmHg 39%
    18:00 +26°C° 0 mm 4 m/s 751 mmHg 46%
    19:00 +24°C° 0 mm 3 m/s 751 mmHg 54%
    20:00 +21°C° 0 mm 3 m/s 752 mmHg 61%
    21:00 +20°C° 0 mm 3 m/s 752 mmHg 65%
    22:00 +20°C° 0 mm 2 m/s 752 mmHg 68%
    23:00 +19°C° 0 mm 2 m/s 752 mmHg 71%
    Arată mai mult